{"data":{"norad_id":47563,"intl_designator":"2021-009R","name":"STARLINK-1962","alt_names":[],"object_type":"PAYLOAD","status":"ACTIVE","operator":null,"country":"US","launch_date":"2021-02-04","launch_site_code":"AFETR","launch_vehicle":null,"mission":null,"orbit_class":"UNKNOWN","rcs_meters":null,"size_class":null,"mass_kg":null,"dimensions":null,"purposes":["comms"],"wikipedia_slug":null,"has_3d_model":false,"image_url":null,"decayed_at":null,"tle_current":{"epoch":"2026-07-08T05:13:21.511776Z","epoch_age_seconds":6445110,"freshness":"OLD","line1":"1 47563U 21009R   26189.21761009  .06096135  12181-4  78574-3 0  9990","line2":"2 47563  53.0200 112.0746 0009749 251.0643 108.9344 16.34854447300196","mean_motion":16.34854447,"eccentricity":0.0009749,"inclination_deg":53.02,"raan_deg":112.0746,"arg_perigee_deg":251.0643,"mean_anomaly_deg":108.9344,"bstar":0.00078574,"rev_number":30019,"period_min":88.081235772545,"perigee_km":173.13320999543,"apogee_km":185.91934185083,"semimajor_km":6557.6632759231,"source":"CELESTRAK","updated_at":"2026-07-08T09:00:52.016383Z"}}}